Location: Hermaringen
(48.5952°N, 10.2585°E)
Time: 15:56:49
(UTC+00:00)

Explorer 7 - Pass Details

Date: 16 February 2026
Orbit: 430 x 541 km, 50.2° (Epoch: 9 March)

Event Time Altitude Azimuth Distance (km) Brightness Sun altitude
Rises 17:20:16 0° 268° (W) 2,485 12.5 -7.0°
Reaches altitude 10° 17:22:23 10° 271° (W) 1,630 10.9 -7.3°
Maximum altitude 17:26:03 68° 356° (N) 524 6.7 -7.9°
Enters shadow 17:29:40 11° 79° (E) 1,611 8.5 -8.5°
